Theta_e
308 308 308 307 306 306 307 309 310 310 306 306 306 304 305 306 306 306 307 307 308 309 310 310 313 313 314 312 311 310 307 307 307 307 306 305 306 313 316 316 318 319 320 320 320
308 308 307 307 307 308 308 309 310 308 307 307 306 305 305 306 306 306 306 307 308 310 310 310 311 312 311 310 309 307 306 306 304 304 305 305 305 305 308 310 316 317 317 319 318
308 307 306 306 307 308 306 307 306 308 307 307 306 307 308 307 306 306 307 309 309 309 309 309 310 311 309 308 306 305 306 304 305 307 305 305 304 305 305 307 310 313 316 316 315
308 307 307 306 307 306 306 306 306 308 306 306 306 308 309 309 304 307 308 309 309 309 309 308 309 308 305 305 305 305 305 305 306 306 305 305 304 302 305 309 316 317 315 314 313
307 307 307 308 307 307 306 307 306 306 306 305 305 306 306 306 306 308 308 309 309 308 308 308 309 307 304 305 306 305 305 305 305 305 304 304 301 302 301 312 314 315 313 313 312
306 307 308 308 309 308 308 308 308 307 306 306 306 307 307 305 308 309 309 308 308 308 308 308 307 307 306 305 305 306 305 304 304 304 304 303 302 302 302 312 314 314 312 311 310
306 306 308 308 309 309 308 308 308 310 308 307 307 307 308 306 309 310 309 309 309 309 309 308 308 308 307 305 306 306 306 305 302 302 303 304 304 300 302 310 311 311 310 309 307
306 307 307 305 305 307 309 308 307 308 309 310 309 308 307 308 309 310 310 310 310 310 310 310 310 309 307 307 306 305 304 307 304 301 303 305 306 299 304 310 309 308 306 305 302
307 306 306 306 306 306 305 306 309 308 308 310 310 309 307 308 310 310 310 310 310 311 311 311 311 307 306 305 306 303 307 308 307 300 298 301 305 299 304 309 307 304 304 302 301
307 307 307 307 306 306 307 306 304 310 308 308 308 310 305 305 306 310 311 311 311 311 311 311 308 301 299 305 309 308 308 306 306 301 297 298 297 297 301 306 304 303 301 300 300
308 307 307 307 306 305 307 307 304 304 303 302 302 303 303 305 304 308 312 311 311 308 303 302 301 300 301 299 301 304 306 303 299 298 298 298 296 296 297 300 301 300 300 299 299
310 308 307 307 306 306 305 304 303 303 302 303 303 302 303 302 304 305 306 306 305 300 300 298 300 299 298 300 298 299 299 299 297 297 297 296 298 297 295 297 300 300 299 298 296
310 309 307 307 307 306 306 306 305 303 303 302 302 302 302 302 301 303 304 303 299 298 297 299 299 298 298 298 303 300 300 299 298 297 296 294 299 297 295 295 296 297 298 297 295
310 310 308 307 307 306 305 305 305 305 298 299 303 303 303 303 301 301 303 303 302 297 297 298 298 298 299 300 300 301 299 299 298 298 300 294 303 298 295 293 293 294 295 295 294
310 310 309 307 306 306 305 305 305 306 301 299 302 303 302 302 301 301 302 303 299 300 298 301 299 298 299 299 299 299 298 298 297 295 297 296 296 298 294 295 293 293 295 295 294
310 309 308 307 307 306 305 305 306 303 299 297 300 300 301 301 300 301 301 302 301 299 298 299 298 297 297 297 298 296 297 296 294 293 299 289 293 301 299 297 295 293 294 295 294
309 309 308 307 306 306 306 306 304 301 295 299 300 298 298 298 298 297 296 295 298 299 298 297 300 296 296 297 297 296 296 299 302 300 304 281 292 301 298 294 294 293 294 295 294
308 308 308 306 306 305 306 302 300 291 293 297 299 298 299 296 298 296 298 297 295 295 293 294 300 295 295 296 297 297 294 298 297 300 300 282 296 302 294 293 293 294 294 294 294
308 308 307 307 306 305 304 299 297 296 301 301 299 297 296 297 296 297 296 298 297 295 296 294 298 295 295 295 294 297 294 292 287 277 289 294 296 297 293 291 292 293 294 295 295
308 308 306 307 306 305 301 297 295 298 300 300 300 297 293 294 299 295 297 297 298 296 295 294 294 291 295 295 294 294 293 296 293 296 298 296 289 301 296 292 289 291 293 295 295
307 309 306 306 305 305 297 287 292 299 300 300 299 294 299 296 297 296 298 297 297 296 295 291 290 296 295 291 292 292 292 291 292 294 296 295 299 294 292 287 286 292 296 296 295
307 307 306 306 307 294 289 288 298 299 300 299 298 297 297 297 298 292 298 296 298 297 297 296 294 292 295 294 293 295 293 294 296 293 290 292 298 291 284 286 289 295 295 294 294
307 307 306 306 299 289 293 297 299 300 299 299 298 298 295 292 296 297 298 297 298 297 296 295 290 291 297 295 292 293 294 292 289 292 291 294 299 285 285 287 292 292 293 292 290
306 302 306 305 300 297 293 295 297 300 299 299 298 297 296 291 293 292 297 297 298 297 298 296 294 294 297 297 289 292 294 293 292 289 295 297 299 299 298 289 293 293 291 291 290
306 302 301 297 298 299 298 296 297 297 299 299 296 298 295 294 294 290 295 296 297 298 296 294 291 291 290 289 286 292 294 291 293 296 294 298 295 298 298 293 292 291 290 289 287
306 305 301 299 299 299 297 299 298 295 298 299 295 297 295 293 299 299 296 296 297 297 295 292 290 284 289 290 290 291 292 292 292 293 292 294 294 295 295 290 289 290 288 286 284
307 306 305 300 298 298 298 299 299 298 298 298 299 297 296 297 298 297 296 295 294 295 294 289 285 285 291 284 286 295 290 291 289 287 289 292 295 282 285 287 289 287 285 283 282
Wind_Speed
18 17 17 16 14 13 11 11 10 9 5 4 7 10 15 15 11 8 12 13 9 8 7 8 10 10 9 11 9 4 5 3 2 2 1 6 2 7 8 12 10 6 6 5 4
19 18 18 17 16 15 15 14 12 9 9 6 5 7 10 12 20 24 16 9 7 6 7 8 9 6 7 6 7 7 4 2 1 1 1 4 4 3 4 6 7 8 6 6 3
20 19 18 17 17 15 15 14 13 13 9 6 3 4 3 5 16 22 15 11 8 7 7 9 10 11 10 10 9 6 4 5 2 2 1 3 8 3 6 4 6 1 5 4 4
20 20 20 19 17 15 17 18 16 13 10 7 8 8 4 0 5 17 17 13 10 7 6 6 5 6 7 6 5 7 8 3 2 7 2 2 5 8 11 3 5 6 6 5 3
20 20 19 17 15 13 12 14 16 19 16 16 11 15 20 28 15 17 16 12 11 7 10 11 17 9 6 7 13 7 4 7 7 8 10 7 8 8 10 4 6 9 7 5 4
21 20 19 17 15 14 14 15 15 14 21 23 17 16 23 31 16 16 15 14 17 13 16 17 19 21 14 5 5 8 13 8 8 9 11 3 3 3 2 7 9 11 9 8 6
20 21 20 17 14 14 12 12 12 10 18 16 15 25 38 17 15 13 17 19 19 19 19 15 8 5 8 7 7 6 5 4 16 12 3 1 2 2 6 15 13 12 11 9 7
19 18 19 20 23 16 11 11 16 17 11 9 15 27 20 19 15 10 14 17 18 18 21 20 21 24 9 13 6 5 5 3 3 10 1 1 7 6 2 17 16 13 11 9 5
17 15 14 15 11 10 18 11 3 8 16 14 6 13 9 13 18 15 14 13 13 15 15 11 17 12 6 4 4 7 2 2 6 5 5 2 6 4 3 15 14 12 11 8 5
16 14 14 15 14 13 6 13 29 3 4 7 9 9 14 15 18 12 11 10 6 6 7 8 10 6 5 5 3 2 0 3 5 5 5 5 10 4 5 11 12 12 12 11 9
17 17 16 13 14 17 1 2 4 14 34 19 15 10 17 8 18 18 8 6 8 12 6 11 11 4 3 3 2 1 1 3 4 1 4 5 9 9 11 12 15 15 14 14 12
16 17 16 10 10 8 17 22 19 9 13 20 23 16 19 16 10 21 17 7 10 5 6 8 5 4 3 3 3 3 1 4 6 2 3 6 19 13 16 12 21 22 20 16 13
15 15 16 7 9 4 6 10 8 6 6 12 18 20 17 14 14 23 17 8 10 9 9 7 1 4 1 5 2 1 0 2 5 8 1 7 9 3 3 7 14 16 17 15 13
15 14 16 11 4 6 6 5 3 2 6 14 13 12 17 4 8 18 15 5 8 3 3 5 3 1 1 2 1 2 2 2 4 4 3 5 5 6 1 5 9 18 20 17 15
15 14 15 12 7 5 2 2 2 2 6 9 8 9 10 9 4 14 15 9 4 3 3 1 2 3 3 1 2 1 2 1 2 3 2 4 2 7 3 5 8 19 24 22 19
16 14 14 14 11 7 2 2 3 7 1 6 7 11 6 12 7 10 7 8 6 3 5 2 1 1 2 2 1 2 1 4 3 3 3 3 3 5 4 4 3 4 24 24 21
15 14 14 18 13 8 2 3 6 7 4 6 4 6 1 7 8 11 6 8 4 5 5 5 1 2 3 3 1 6 5 4 6 5 5 1 1 11 3 5 3 6 10 23 22
15 12 14 20 14 8 1 5 9 3 5 1 2 2 4 7 5 9 3 4 5 5 3 4 6 4 6 3 2 3 4 4 4 4 5 2 6 5 3 3 6 8 10 14 22
14 9 16 20 14 8 1 7 7 6 1 2 1 5 5 3 1 4 6 2 4 6 4 4 5 2 4 2 2 1 4 3 6 1 3 3 7 10 2 6 9 9 7 12 19
12 3 19 18 11 6 5 4 2 2 1 1 3 2 1 6 5 5 4 2 3 5 1 2 4 1 2 1 6 4 3 4 3 5 7 5 5 6 6 5 4 9 14 13 17
9 1 19 18 8 7 4 4 2 1 2 4 2 2 2 1 2 3 4 3 3 1 4 3 3 4 1 2 5 2 2 5 3 3 4 5 6 7 7 4 4 7 8 14 17
6 3 18 12 6 6 3 4 3 2 1 2 2 2 1 1 0 1 1 5 2 2 1 1 4 3 8 1 2 1 4 4 4 6 3 1 13 1 4 4 8 8 12 13 16
5 6 14 9 4 3 1 1 1 2 2 1 2 2 2 2 4 1 1 3 4 4 5 5 1 4 10 2 3 3 4 4 3 2 7 1 8 1 2 7 9 16 17 19 13
6 4 8 12 10 6 3 1 1 0 1 2 3 2 2 3 2 3 2 3 4 3 4 5 3 8 7 8 3 5 6 4 5 2 5 14 30 26 20 7 17 17 17 10 7
8 4 4 2 6 6 2 3 1 1 1 1 2 3 4 0 1 3 2 3 2 4 2 3 5 3 5 8 5 12 15 9 13 19 8 30 14 27 22 11 20 19 4 7 3
5 2 3 3 2 2 2 3 4 3 3 1 3 3 5 4 3 3 2 2 4 1 3 2 3 2 6 5 6 11 17 16 18 17 14 26 28 21 31 13 4 5 6 4 6
4 2 1 0 1 2 3 4 3 3 3 2 4 3 3 7 8 10 9 7 1 3 5 2 3 3 6 4 9 9 9 8 5 5 6 7 11 0 2 4 4 6 6 5 10
Wind_Direction
28 25 25 27 29 34 42 55 60 57 54 57 44 81 82 76 77 89 61 20 37 55 83 105 111 103 92 74 59 73 65 71 49 95 237 3 85 58 66 82 65 70 98 118 122
34 33 36 40 44 48 53 52 54 42 40 36 51 103 97 79 66 61 48 33 36 61 86 118 112 99 72 49 39 57 77 93 254 207 91 35 81 73 86 79 72 85 85 107 157
39 37 37 41 46 55 54 55 53 48 34 28 53 146 108 89 52 23 48 50 52 82 90 113 110 93 68 50 24 40 110 159 42 19 140 107 63 69 134 43 28 63 117 112 80
41 43 41 41 46 48 63 55 51 62 42 49 73 94 64 88 67 26 45 47 54 85 105 104 108 68 66 54 37 95 61 135 66 31 152 87 96 70 64 22 90 130 138 117 105
43 36 31 33 38 42 43 46 60 59 63 70 91 103 96 74 35 46 47 49 52 76 98 101 102 95 94 106 75 79 125 70 75 70 83 98 83 126 48 108 150 137 143 155 174
35 34 32 34 39 46 54 62 63 64 74 78 86 101 88 71 47 50 59 68 70 81 95 98 96 104 81 71 69 115 100 89 56 47 55 97 85 174 12 158 163 176 166 185 196
34 36 36 38 44 47 50 55 54 64 74 75 77 72 68 60 54 59 66 68 72 77 86 88 110 100 103 95 107 117 76 42 23 354 52 71 230 201 312 174 179 183 180 180 179
34 37 41 51 55 49 58 69 64 67 68 74 70 69 71 54 56 71 65 70 72 75 80 84 90 82 73 113 52 50 52 22 322 6 276 126 255 205 204 175 191 195 175 174 174
29 34 33 24 11 360 59 54 59 71 65 62 80 62 53 48 59 59 65 75 76 75 74 83 78 70 71 69 38 15 144 317 308 48 317 59 267 197 232 199 195 187 186 184 190
19 12 1 3 15 31 82 67 58 141 105 51 63 77 26 22 36 40 63 66 97 89 71 59 61 64 29 41 179 235 26 289 270 341 348 291 268 242 250 205 203 199 196 195 209
16 12 9 13 21 39 117 133 58 49 62 65 54 73 30 44 42 34 49 59 69 63 47 31 64 48 333 334 349 130 181 270 259 39 325 254 273 256 219 206 209 205 204 209 216
16 17 13 22 21 42 63 75 77 104 69 51 52 47 31 27 35 40 53 63 56 52 353 33 58 327 294 10 72 49 3 290 280 16 352 352 292 264 189 210 212 210 209 213 216
14 18 20 28 30 22 39 61 62 78 76 26 29 24 16 25 39 13 25 35 54 49 18 91 301 317 171 30 21 39 182 319 261 331 68 325 285 280 220 210 217 220 225 224 227
8 18 22 30 34 31 48 50 55 51 74 334 357 20 2 30 45 19 26 48 39 137 77 88 331 349 115 96 110 295 78 317 298 19 287 16 282 306 301 257 235 228 225 225 227
6 12 21 26 34 38 58 80 80 101 55 323 341 345 12 67 341 14 28 58 80 90 121 263 6 18 59 343 80 302 338 279 79 104 13 350 67 274 14 285 246 227 227 226 227
4 6 16 19 19 32 79 133 114 44 319 339 337 353 13 21 17 351 28 62 75 93 38 110 99 54 348 313 214 8 65 45 67 104 17 243 104 277 239 213 280 267 234 228 229
4 2 8 12 11 13 79 141 42 91 350 315 333 4 59 348 354 21 29 16 51 59 359 344 78 49 15 334 84 38 42 341 354 5 234 45 5 251 278 232 235 278 265 227 230
359 0 8 4 7 12 71 57 69 251 236 17 300 304 48 360 25 353 38 40 46 41 80 72 333 16 352 76 207 45 119 139 279 287 282 16 240 255 192 265 265 276 277 232 230
353 5 7 4 2 9 42 50 183 193 196 331 293 57 335 0 118 28 23 34 24 27 89 33 294 21 32 9 57 320 41 142 95 95 25 267 289 288 266 278 257 253 246 232 237
353 23 7 2 3 8 72 155 145 211 327 249 94 92 332 312 17 44 6 25 57 44 66 190 335 304 286 57 42 101 160 32 13 336 311 277 271 246 297 283 271 252 253 257 257
2 28 2 359 6 43 97 201 225 185 27 23 114 89 149 316 11 354 343 33 27 42 56 126 92 288 49 194 180 25 14 44 118 143 213 294 251 211 226 227 226 270 278 294 285
15 31 360 10 37 52 80 192 141 149 106 94 84 92 118 153 255 89 225 184 171 157 72 180 132 275 236 81 10 315 203 157 126 261 232 194 279 73 223 249 278 290 300 311 299
16 11 14 31 79 11 7 46 100 146 114 111 117 70 105 143 17 315 294 194 182 171 170 169 310 349 335 42 12 205 209 160 122 83 204 169 267 288 266 278 263 278 306 307 287
4 16 31 50 72 113 126 329 91 132 117 125 120 120 142 18 12 244 257 182 191 176 160 165 178 182 213 222 160 246 213 195 141 180 250 231 276 279 281 266 291 308 314 323 298
19 49 11 324 20 74 80 127 87 284 151 165 41 218 162 74 316 261 261 297 143 161 144 140 217 224 258 252 211 256 257 198 204 235 215 273 261 276 290 289 296 310 325 342 333
31 360 30 66 55 94 29 194 179 278 167 231 157 177 172 178 222 276 190 243 250 126 156 19 259 104 281 292 254 266 250 238 234 253 257 261 276 275 279 284 296 330 324 355 338
20 16 326 1 357 81 219 169 199 169 204 226 199 131 211 245 268 268 244 261 271 171 173 152 131 37 267 334 312 296 228 182 190 221 166 212 247 253 303 325 334 342 354 357 351